Theta_e
326 328 329 330 330 329 330 331 331 333 331 330 332 332 330 329 328 329 330 326 325 329 329 330 330 330 329 329 328 328 328 328 327 326 326 326 327 327 326 326 326 327 327 328 328 327 328 328 326 325 325 327 329 330 330 331 331 331 332 332 333 333 333 333 333 333 332 331 331 330 330 330 330 329 329 329 328 328 328 327 327 327 328 328 328 327
327 331 330 328 329 328 329 330 330 333 332 329 329 330 329 328 328 328 328 325 324 327 329 329 329 329 329 328 328 327 328 328 327 327 327 326 326 327 327 327 327 327 327 328 328 327 327 327 326 325 324 324 326 329 330 331 331 331 331 332 332 333 333 333 333 333 332 331 331 331 330 330 329 329 329 328 328 328 328 327 327 328 328 329 328 327
325 329 329 326 327 328 329 329 329 332 331 330 329 328 328 329 328 328 328 325 324 326 328 328 328 327 327 327 327 327 327 327 327 326 327 326 326 327 327 327 327 327 327 327 327 327 327 327 326 325 324 323 324 326 328 330 331 331 331 331 331 332 332 332 332 332 332 331 331 330 330 330 329 329 328 328 328 327 327 327 327 328 329 329 328 328
323 325 326 324 325 328 329 329 329 330 331 330 329 328 328 328 327 327 326 326 325 325 327 326 326 326 326 326 325 325 326 326 327 326 326 326 326 327 327 327 327 327 327 327 326 327 327 327 327 326 325 324 323 324 325 327 330 331 331 331 331 331 331 332 331 331 332 332 331 331 331 331 330 329 328 328 328 327 327 327 327 328 329 329 329 328
323 325 325 325 326 328 329 330 329 330 331 330 329 328 327 326 325 325 325 326 326 324 325 326 326 326 325 326 325 324 325 325 326 326 326 326 326 327 327 327 327 327 327 327 326 327 327 327 327 326 326 324 324 324 324 325 327 329 330 330 330 330 331 332 331 330 331 332 332 332 331 331 330 329 329 328 328 328 327 327 327 327 328 329 329 328
324 324 326 328 329 329 330 330 329 330 331 331 329 327 326 325 325 325 325 326 326 325 324 326 327 325 322 323 325 324 325 325 325 326 326 326 326 326 327 327 327 327 327 327 327 326 327 327 327 327 326 326 325 325 324 325 326 328 329 330 330 330 331 331 331 330 330 332 332 332 331 331 330 329 329 328 328 328 328 328 327 327 327 328 329 328
325 324 326 329 330 330 330 330 328 327 329 330 328 326 325 325 325 324 325 327 327 325 323 324 327 326 322 321 322 323 324 324 325 326 326 326 325 326 326 326 326 326 327 327 327 327 327 327 327 326 326 326 325 325 324 324 325 327 328 330 330 330 330 331 331 331 330 331 332 333 332 331 330 330 330 329 328 329 329 328 328 328 328 327 328 328
325 324 326 327 328 329 330 330 329 326 327 328 327 326 326 325 325 325 326 327 326 323 324 324 326 328 326 323 322 322 323 324 325 325 326 325 324 324 324 324 325 325 326 327 328 327 326 326 326 325 325 325 325 324 324 324 324 325 327 328 330 330 330 331 331 331 330 331 332 333 332 331 331 331 330 330 329 329 329 329 329 329 329 328 328 328
323 324 325 325 327 328 327 329 329 328 330 329 325 325 326 326 326 326 326 328 327 327 328 326 326 330 329 325 323 323 322 322 323 324 324 324 324 324 323 323 324 325 325 326 327 327 326 326 325 325 324 324 323 324 324 323 322 324 326 327 329 330 330 331 330 330 331 330 331 332 332 332 331 331 331 331 330 330 330 330 330 329 329 329 329 328
322 323 324 324 326 326 325 327 329 330 330 328 326 326 326 327 328 328 329 329 330 331 331 327 325 329 329 324 323 324 323 323 323 322 322 323 324 324 323 324 324 323 325 326 326 326 325 325 324 324 323 323 323 323 323 322 322 323 325 326 328 329 329 331 330 330 330 330 330 331 332 332 332 331 331 331 330 330 330 329 330 330 330 330 330 329
321 321 322 323 324 324 324 326 327 329 328 327 328 329 328 328 329 331 330 329 332 333 332 328 325 327 329 326 322 324 324 324 324 322 322 323 323 323 323 323 324 322 324 325 325 324 324 324 323 322 322 322 322 322 321 321 321 321 322 324 326 328 328 330 331 330 330 330 330 329 330 332 332 332 331 331 331 331 330 330 330 330 330 330 330 330
320 321 322 322 322 323 324 324 325 327 326 326 329 329 328 327 328 329 329 330 334 335 331 328 325 326 329 327 322 323 324 323 323 322 322 323 322 323 323 322 323 323 324 325 324 324 324 323 323 322 322 321 321 321 321 320 320 319 320 322 324 326 327 329 330 330 330 330 330 329 330 331 332 332 332 331 331 331 331 331 330 330 330 330 330 330
321 321 321 320 320 321 323 324 325 325 325 326 327 326 326 327 329 331 331 331 334 333 329 326 326 328 328 325 322 323 323 322 323 322 321 322 321 322 322 322 323 323 324 324 325 325 325 324 324 324 323 323 323 322 322 321 320 319 320 321 322 324 325 327 329 330 330 330 330 329 329 330 330 331 332 332 331 331 331 331 331 330 330 330 330 330
323 321 321 320 320 319 321 323 324 324 325 325 324 325 326 327 330 333 332 332 332 331 328 325 328 330 327 324 323 323 323 322 322 322 322 322 322 322 322 323 323 324 324 324 325 326 326 326 326 325 324 323 323 322 322 322 321 320 320 320 321 321 323 325 327 329 330 330 330 330 330 329 329 329 331 331 331 331 331 331 331 331 330 330 330 330
325 324 321 320 319 319 319 320 322 322 323 323 323 324 325 326 329 332 332 331 331 330 328 327 331 331 327 324 323 321 322 323 323 323 323 323 323 323 323 323 323 323 323 324 325 325 325 325 325 325 324 323 323 321 320 320 320 320 320 320 320 320 321 323 325 328 329 330 329 329 329 330 329 329 329 330 330 330 331 331 331 331 331 330 330 330
324 324 321 318 318 318 318 318 319 321 322 323 323 324 325 326 327 328 327 326 327 328 328 328 329 328 325 323 322 321 322 321 322 323 322 322 323 323 323 323 323 323 322 324 325 325 325 325 325 325 323 322 321 320 319 319 319 319 319 319 319 319 320 321 322 325 328 329 329 329 329 329 329 328 328 329 329 329 330 330 330 331 330 330 330 330
322 322 321 318 318 317 317 317 318 320 323 324 324 325 325 327 328 326 325 324 324 327 328 327 327 326 324 324 322 322 322 321 321 321 320 322 322 322 323 323 324 324 324 325 325 325 325 324 325 324 321 320 319 319 318 318 317 318 318 318 318 318 319 320 321 323 326 328 329 329 329 329 329 328 328 328 329 329 329 329 330 330 330 330 330 329
321 324 322 319 319 318 315 317 318 319 322 324 325 324 323 326 326 324 325 326 326 327 327 326 327 327 326 327 323 322 323 322 322 321 321 322 322 322 323 324 324 325 325 325 324 324 324 324 325 323 320 319 318 317 316 315 314 314 315 315 316 317 317 318 320 321 323 326 328 328 329 329 329 329 329 328 328 328 328 329 329 329 330 330 329 329
320 325 323 319 320 319 316 318 319 319 319 321 324 323 322 325 325 323 324 326 327 327 326 325 325 325 325 325 321 322 323 322 322 322 322 321 321 322 322 322 324 324 325 325 324 324 324 324 324 321 319 317 316 315 313 312 312 311 311 312 312 313 313 315 317 319 322 324 325 327 328 328 328 329 329 329 328 328 328 329 329 329 329 329 329 328
319 323 324 322 319 319 318 319 320 320 319 320 322 323 324 325 325 324 323 324 325 325 325 325 325 323 322 321 320 321 321 320 321 320 321 321 320 321 321 321 322 323 324 324 324 323 323 323 322 319 318 316 314 312 311 311 311 311 310 310 310 311 311 312 315 317 320 322 324 325 327 328 329 329 329 329 329 329 329 328 329 329 329 329 329 329
319 318 323 323 321 321 321 319 318 319 320 320 322 323 324 324 325 325 324 322 323 324 324 325 325 322 320 319 320 320 320 320 320 320 321 321 320 320 319 320 321 322 323 324 323 322 321 321 320 318 316 315 313 312 312 312 312 311 311 310 310 310 310 312 314 316 318 321 323 325 326 328 329 329 329 329 329 329 329 328 328 328 329 329 328 328
319 317 320 323 323 322 322 319 316 317 318 319 320 321 321 322 323 324 324 323 322 322 323 324 324 323 319 318 319 319 320 320 319 320 321 320 319 318 319 319 320 321 322 322 322 320 320 320 319 317 315 314 313 313 314 314 314 313 312 311 311 310 310 311 313 315 317 320 322 324 325 327 328 328 329 329 329 328 328 328 328 327 328 328 328 328
318 317 318 322 322 321 320 319 317 317 318 318 318 318 319 321 321 322 324 323 322 322 323 323 324 324 319 317 319 318 319 318 318 318 318 318 317 317 317 319 319 321 321 321 321 320 320 320 319 317 316 315 315 315 315 315 314 313 312 312 311 311 311 310 311 314 316 318 320 322 324 325 325 326 327 328 328 328 327 327 327 327 327 327 327 327
317 316 317 318 320 320 319 318 316 315 317 321 321 318 318 320 321 321 321 321 322 323 323 323 325 324 319 318 318 317 318 318 317 317 317 317 317 317 318 319 319 320 321 321 320 320 321 321 320 319 318 317 316 316 316 316 315 314 313 313 313 312 312 311 310 311 315 318 319 320 322 323 323 324 325 326 327 327 327 327 327 326 327 327 327 327
317 317 316 317 319 320 319 318 317 315 316 320 321 319 319 319 321 322 321 319 321 323 323 324 324 322 319 318 318 317 318 317 317 317 317 317 317 317 318 319 319 319 320 320 321 321 321 322 322 321 319 318 317 317 317 317 316 314 313 313 313 313 312 311 310 310 312 315 318 319 320 321 322 323 324 325 326 326 326 326 326 326 326 326 326 327
317 316 315 316 318 319 318 318 318 317 317 319 320 321 321 320 321 323 322 321 322 322 323 323 323 322 319 318 318 318 317 317 317 317 317 318 318 318 318 319 319 319 320 319 320 321 322 323 322 320 319 319 318 318 318 317 316 314 314 314 313 313 312 311 310 309 310 311 314 316 318 319 320 322 323 324 325 326 326 326 326 326 326 326 326 326
315 316 315 314 315 315 316 316 316 317 318 319 320 321 321 321 321 322 323 323 323 322 322 321 321 321 320 319 318 318 317 317 317 317 318 318 318 319 319 319 319 319 319 319 320 320 321 321 320 319 320 319 318 318 319 317 316 315 314 314 314 313 312 311 310 309 309 309 310 311 314 317 319 320 321 322 323 324 325 325 325 325 325 325 326 326
316 316 316 316 316 314 313 315 317 317 318 319 320 320 321 321 322 323 323 322 321 322 323 321 319 320 320 318 318 318 317 317 317 317 317 317 318 319 319 319 318 318 318 318 318 318 319 320 320 320 320 318 318 319 319 317 316 316 315 315 315 314 313 311 310 309 309 308 308 309 311 314 316 318 320 321 321 322 323 324 324 324 325 325 325 325
316 316 316 318 318 316 315 316 316 315 316 316 317 318 319 320 321 322 322 321 321 322 322 321 320 321 319 318 318 318 317 318 318 317 317 317 317 318 319 319 318 317 316 316 316 316 317 318 319 319 318 317 319 320 318 317 317 316 316 315 315 314 313 311 310 309 308 308 308 308 309 310 312 314 316 318 319 320 321 322 322 323 324 324 324 324
314 316 316 317 317 317 317 317 316 315 315 314 314 315 315 316 318 319 319 319 320 321 320 320 321 320 319 318 318 317 316 317 316 316 316 315 315 315 316 317 316 316 316 315 315 315 315 316 317 318 317 318 320 320 318 318 317 316 317 316 315 314 312 311 309 308 308 308 308 308 308 309 309 310 312 313 314 315 317 318 320 321 322 323 323 323
313 315 315 315 316 316 316 317 316 315 315 315 315 314 313 313 314 315 316 316 317 318 318 319 320 319 317 317 316 315 315 315 315 315 315 315 314 315 315 314 314 316 315 314 314 315 315 315 316 317 317 318 319 318 318 318 317 317 316 315 314 313 311 310 308 308 307 307 308 307 307 307 308 308 309 309 310 311 312 313 315 317 318 319 319 320
312 314 314 314 314 314 314 314 314 314 315 316 315 314 313 313 313 313 314 314 314 315 315 316 317 316 315 314 314 314 314 314 315 314 315 315 314 313 313 311 312 314 315 314 314 315 315 315 315 316 318 318 318 317 317 317 316 315 314 313 313 312 311 309 308 307 307 307 307 307 306 306 306 306 307 307 308 308 309 309 310 311 313 314 315 316
312 312 313 313 313 312 312 312 311 314 315 314 314 313 313 312 312 312 312 312 312 312 313 314 314 314 313 312 312 312 312 312 313 313 313 313 313 312 312 311 312 314 315 315 315 315 315 316 316 317 317 317 316 316 316 315 314 313 312 312 311 310 309 308 307 307 306 306 306 306 306 306 305 305 306 306 306 306 307 307 308 308 309 310 311 312
312 312 311 312 311 310 313 313 313 315 314 313 311 312 312 312 312 312 312 312 311 311 311 312 312 311 311 311 311 311 311 311 311 312 311 312 313 313 312 312 313 313 315 316 316 316 316 316 316 316 316 316 315 315 314 313 312 312 312 311 310 309 309 308 307 307 306 306 306 306 306 306 306 306 305 305 305 305 305 305 306 306 307 307 308 308
314 312 310 311 310 310 312 314 314 315 314 311 309 310 311 310 310 311 312 312 311 311 312 311 311 311 310 310 310 310 310 310 310 311 311 310 312 313 312 312 312 313 313 315 315 316 316 316 316 316 315 315 314 313 312 310 310 310 310 309 309 308 308 307 307 307 306 306 306 306 307 307 307 307 306 305 305 304 304 304 305 305 305 306 306 307
314 313 311 311 310 310 311 312 312 313 311 309 309 308 308 309 309 311 311 311 310 310 311 310 310 310 310 310 310 309 309 309 309 310 310 310 311 311 311 311 312 312 313 314 315 316 316 316 316 315 314 313 312 310 310 309 308 308 308 307 307 306 306 306 306 306 306 306 306 307 307 307 307 307 306 305 305 304 303 303 304 304 304 303 304 305
312 313 312 311 310 310 310 310 310 310 309 308 308 307 307 308 308 308 309 309 308 308 308 308 308 309 309 309 309 309 310 310 310 310 310 311 313 313 312 312 313 314 314 314 314 314 313 313 313 311 310 309 308 308 308 308 307 306 306 305 305 305 305 305 306 306 306 306 306 306 306 306 306 306 306 305 305 304 304 304 304 303 303 302 302 302
312 312 312 311 310 309 309 309 309 309 309 308 308 307 308 307 307 308 308 308 307 306 307 307 307 307 309 309 309 309 310 311 310 310 310 312 312 313 312 312 312 312 312 311 311 310 309 309 308 307 306 307 307 307 307 306 305 305 305 305 305 305 305 305 305 305 305 305 305 305 305 305 305 305 305 304 304 304 305 304 304 303 302 301 301 301
311 311 310 309 308 308 309 309 308 308 308 307 307 307 307 307 307 308 308 308 308 307 307 307 308 308 308 309 310 310 311 311 311 311 311 310 309 309 309 309 309 308 308 308 308 307 306 305 305 305 305 306 306 305 304 304 303 303 304 304 304 304 304 305 305 305 305 305 304 304 304 304 304 304 304 304 304 304 304 304 303 303 302 301 300 300
310 310 309 308 308 306 307 308 307 307 307 307 307 307 306 306 307 308 309 308 308 308 310 309 309 309 309 309 310 310 311 311 311 310 309 306 306 307 307 307 306 306 306 306 305 305 304 304 305 305 305 305 304 304 303 302 302 302 302 303 303 303 304 304 304 304 304 303 303 303 303 303 303 303 303 303 304 303 303 303 302 301 301 300 300 300
310 310 309 308 307 306 306 307 306 307 307 307 307 307 307 308 309 308 308 308 307 311 312 312 311 311 310 311 311 310 310 309 308 307 306 304 304 303 304 305 305 305 305 304 304 303 303 304 304 303 303 303 303 302 302 301 301 301 301 301 301 302 303 303 302 302 302 302 302 302 303 303 302 302 302 302 303 303 302 302 301 301 300 300 300 300
310 310 309 308 307 307 306 306 306 306 306 307 309 309 308 308 309 309 309 311 312 312 311 311 310 309 308 309 309 309 308 306 305 305 304 304 303 301 302 303 304 304 304 303 302 302 302 302 302 302 301 301 301 301 301 300 299 299 299 300 300 301 301 300 300 300 300 300 300 300 301 301 301 301 301 301 302 301 301 301 301 300 300 299 299 299
310 309 308 308 308 307 307 307 307 307 308 310 312 311 308 307 308 309 310 311 311 310 309 308 307 306 306 306 306 306 306 305 305 304 304 303 302 301 302 302 303 303 303 302 301 301 301 300 300 300 300 300 300 300 299 299 299 298 298 298 299 299 299 298 297 297 297 297 297 297 298 299 299 300 300 300 300 300 300 300 300 299 299 299 298 299
307 307 307 307 307 307 307 307 307 307 307 309 310 309 308 308 310 311 310 310 308 306 305 306 305 304 305 305 305 305 305 304 304 304 304 303 302 301 301 302 302 302 302 301 300 300 300 299 299 299 299 299 298 298 298 298 298 297 297 297 298 298 297 296 296 295 295 295 295 295 296 297 298 298 299 299 299 299 299 299 298 298 298 298 298 298
306 307 307 307 306 306 306 307 306 306 307 308 309 309 309 310 311 311 310 309 306 303 303 305 305 304 304 305 305 305 305 305 305 305 305 303 302 301 301 301 302 301 301 300 300 299 298 298 298 298 298 298 298 298 297 297 297 297 296 297 297 296 295 294 294 295 295 295 295 295 295 296 296 297 297 298 298 298 298 298 297 297 297 297 297 298
305 306 306 306 306 306 306 306 306 306 307 307 309 310 310 309 310 311 311 309 305 304 305 306 306 306 305 304 304 304 304 305 306 306 304 303 302 301 301 301 301 300 300 299 299 298 298 297 297 297 297 297 297 297 297 297 297 296 296 296 296 295 293 293 292 293 294 295 296 295 295 294 295 296 297 297 297 297 297 297 297 297 297 297 297 297
305 305 306 306 305 306 307 307 306 307 307 307 308 309 308 308 308 309 310 309 307 306 308 307 307 307 305 304 305 304 302 302 303 303 302 302 301 300 300 300 300 300 299 299 298 297 297 297 296 296 296 296 296 297 297 296 296 296 295 295 295 294 293 292 291 291 292 293 294 294 294 294 295 295 296 296 297 297 297 297 297 297 297 297 297 297
305 305 306 306 306 306 307 307 306 306 307 308 308 307 307 307 305 304 305 306 306 305 305 304 304 304 303 303 304 304 303 302 302 301 300 300 300 299 299 299 299 299 298 298 297 297 296 296 296 296 295 295 296 296 296 296 295 295 295 294 294 293 292 291 290 290 290 291 291 292 293 294 295 295 296 296 296 296 296 296 296 296 296 297 297 297
305 305 305 306 306 306 306 307 307 306 307 308 307 305 304 304 303 303 303 304 304 304 303 301 301 301 301 301 301 301 301 301 300 299 299 298 298 298 298 298 298 297 297 297 296 296 296 296 295 295 295 295 296 296 296 295 295 295 294 293 292 291 290 290 289 289 290 290 291 292 293 294 295 295 295 296 296 296 296 296 296 297 297 297 297 297
305 305 305 306 307 307 307 307 307 307 307 306 304 302 302 302 302 303 303 302 302 302 300 298 299 299 300 300 300 300 299 298 297 297 297 297 297 297 297 297 297 296 296 296 295 295 295 295 295 295 294 295 295 295 295 294 294 294 293 292 291 290 289 288 288 289 289 290 291 292 293 294 294 295 295 295 295 296 296 296 296 296 296 296 296 296
304 305 305 306 306 307 306 307 307 307 307 304 300 299 300 300 298 299 299 297 297 297 296 295 295 296 296 296 297 298 297 296 295 296 296 296 296 296 296 296 296 295 295 295 295 294 294 294 294 294 294 294 295 294 294 293 293 293 292 292 291 290 289 288 288 288 289 290 290 291 291 292 293 294 294 295 295 295 295 295 295 295 295 296 296 296
Wind_Speed
4 6 7 9 12 15 17 17 18 16 10 9 10 10 12 12 10 14 9 5 6 9 11 13 14 14 15 17 15 13 13 13 13 13 12 13 12 11 12 13 13 13 13 14 17 19 18 16 16 17 17 16 17 19 20 21 23 24 24 22 23 24 25 23 23 23 24 23 23 23 25 25 23 22 25 26 24 22 20 22 24 25 24 21 20 20
2 7 10 12 14 14 16 18 18 16 10 9 10 10 11 11 10 13 8 7 4 5 9 11 13 15 15 16 15 13 14 14 14 15 15 16 14 12 13 14 14 12 11 12 15 16 17 17 18 19 19 19 19 20 21 22 23 25 25 25 24 24 24 25 26 25 25 26 25 24 24 24 23 23 24 25 24 22 20 21 25 26 25 22 22 22
2 6 7 7 11 14 16 19 19 16 12 10 9 8 9 9 9 8 4 6 5 3 8 11 13 14 14 16 17 16 16 14 14 16 16 16 15 13 13 13 13 12 11 12 13 14 17 18 18 18 19 20 21 20 21 22 23 24 25 25 25 24 25 26 28 27 26 27 27 25 22 21 21 21 22 23 21 21 20 21 23 25 24 23 23 24
4 4 3 3 6 13 17 18 19 15 11 8 8 8 9 9 10 8 5 7 7 5 9 10 10 11 12 15 17 17 17 15 16 18 18 16 15 15 15 13 13 14 14 13 13 14 16 17 16 16 17 19 20 19 20 21 22 23 24 25 25 26 26 25 28 29 26 25 26 25 21 19 19 19 20 21 20 21 22 22 22 23 24 25 26 26
7 1 2 3 5 5 11 12 14 12 9 8 9 10 10 11 12 9 3 4 6 8 9 8 9 10 11 15 16 15 16 17 18 19 18 17 15 15 15 14 14 14 14 14 14 14 14 15 16 16 17 17 18 19 21 22 22 22 22 24 25 26 25 24 27 30 27 23 22 23 21 19 19 20 21 22 23 24 25 25 24 23 23 26 29 27
10 3 4 3 5 3 5 9 12 10 7 7 9 11 13 13 13 9 5 3 6 9 8 6 8 8 8 13 15 11 12 15 16 18 18 16 14 13 13 13 13 13 13 13 15 14 12 13 15 16 16 16 17 19 21 22 21 21 21 22 24 24 24 24 25 28 28 25 23 24 23 22 23 24 25 27 27 26 28 28 26 26 25 26 28 29
7 8 7 6 4 3 3 7 11 10 8 7 6 10 16 17 14 11 9 6 7 9 4 6 7 9 6 10 12 10 11 12 11 13 14 12 11 11 11 11 11 11 12 12 13 12 11 12 13 15 16 16 17 17 17 18 19 21 21 21 23 24 23 24 24 26 28 27 25 26 26 26 26 25 25 27 26 24 25 25 25 26 27 27 28 30
9 13 11 11 8 3 2 5 6 8 11 6 5 5 12 18 17 14 11 8 8 9 5 7 7 10 9 9 11 12 13 13 11 11 12 12 12 12 12 13 13 13 12 10 10 9 9 11 12 14 15 15 16 15 14 16 18 20 21 21 21 22 22 23 24 25 28 28 27 26 27 27 26 25 23 23 23 22 21 22 23 25 26 28 30 30
11 17 16 15 12 6 6 3 1 3 6 1 8 9 5 9 14 14 11 9 8 8 9 9 8 9 11 7 7 11 15 17 15 14 14 13 12 13 14 14 14 13 12 10 8 7 7 9 11 12 13 13 14 14 14 17 18 17 18 20 20 22 22 22 24 26 28 29 27 26 26 27 26 25 22 20 21 22 21 21 22 23 23 25 28 30
6 12 14 14 10 8 9 5 4 3 1 2 4 6 7 6 7 8 8 8 8 8 10 12 10 10 11 6 6 9 12 15 14 13 12 11 11 12 12 12 12 11 10 7 5 5 6 7 9 11 12 12 13 13 15 16 17 16 16 18 20 22 22 21 24 26 28 29 28 27 28 27 25 24 22 21 21 22 23 23 23 23 23 23 25 28
4 5 8 8 6 8 8 5 5 5 4 2 3 4 5 4 3 3 4 5 6 8 12 15 14 12 12 7 5 8 9 9 9 8 6 7 11 12 11 10 11 10 8 4 3 5 6 7 9 10 12 14 13 13 15 16 16 16 17 18 20 22 22 22 23 25 28 30 30 30 30 29 27 25 23 23 24 23 23 24 25 24 24 23 24 26
8 7 6 3 3 7 8 4 3 4 4 3 3 2 2 2 1 1 2 4 6 8 10 14 16 15 13 7 3 6 7 6 6 6 6 8 10 9 9 10 10 9 8 5 4 4 4 6 8 10 12 14 12 12 14 16 17 18 18 18 19 21 22 22 23 25 28 29 31 33 31 30 29 27 25 25 25 24 23 24 24 24 24 24 24 25
7 9 9 5 5 9 10 6 3 3 5 4 4 4 1 2 3 3 4 4 6 5 3 7 13 13 14 13 10 11 10 8 8 8 9 12 11 11 12 11 8 7 7 6 5 5 4 5 6 9 12 12 11 11 12 14 16 17 18 18 19 21 22 22 23 25 27 28 30 31 30 30 30 28 27 26 24 24 24 23 23 24 24 24 26 27
5 7 11 9 5 9 10 9 7 7 9 10 9 8 6 4 4 5 6 4 5 7 5 5 9 7 8 12 14 18 18 16 15 13 13 13 14 15 13 9 8 7 8 7 6 6 6 6 6 7 9 10 11 10 10 12 13 15 16 17 20 22 22 21 23 24 25 28 29 28 28 29 28 28 27 27 26 26 25 24 24 24 24 25 27 29
8 5 10 12 8 11 13 12 8 4 7 10 8 7 6 5 4 3 3 2 3 5 5 6 6 6 6 3 2 6 11 15 16 14 13 13 13 12 10 8 8 8 9 6 5 6 6 8 8 7 7 9 11 11 11 11 11 13 15 15 18 20 20 19 22 24 24 26 26 26 27 27 27 27 27 27 28 27 26 25 25 24 25 26 26 28
9 4 11 15 11 16 17 13 8 4 4 5 4 5 7 6 3 1 1 1 1 3 2 5 4 4 6 4 1 1 2 5 9 9 11 12 11 9 8 8 8 8 9 6 4 6 7 8 9 5 5 9 10 10 11 11 10 12 13 14 16 18 17 18 20 23 24 24 24 25 27 27 27 28 27 26 28 29 27 26 25 24 25 26 25 25
8 6 14 16 11 17 18 14 13 7 3 4 5 7 4 1 3 1 2 1 1 3 4 4 4 5 8 10 11 11 8 6 8 9 12 12 10 8 7 7 7 8 7 5 4 6 7 8 7 4 4 8 10 10 10 10 10 11 12 13 14 16 17 18 19 21 23 24 24 25 26 26 27 28 29 28 28 27 26 26 26 25 25 25 25 26
7 5 13 17 14 17 16 15 15 7 1 4 6 6 4 5 3 1 3 2 2 4 3 3 7 8 8 7 6 9 13 13 12 13 14 11 8 8 7 7 7 8 7 5 5 5 6 6 5 3 3 6 9 10 12 13 13 13 13 13 15 16 18 18 19 21 23 24 25 25 25 26 27 28 29 30 28 26 25 25 26 26 26 26 27 27
7 3 8 15 14 14 14 12 12 6 1 1 2 5 5 1 2 4 3 3 4 5 3 4 8 8 9 8 4 3 6 9 11 12 12 10 7 7 6 6 8 7 5 4 4 4 4 5 5 4 4 7 9 13 16 16 16 17 17 16 17 19 20 20 20 21 23 24 25 25 24 26 28 28 28 27 27 26 26 26 26 26 26 26 26 26
8 4 5 11 12 13 11 9 10 9 4 1 1 4 3 1 1 4 4 1 2 4 4 4 6 6 8 11 11 12 12 12 12 10 9 9 7 5 5 5 5 4 3 3 4 4 4 6 6 5 6 8 11 16 18 17 18 19 19 19 20 21 22 21 20 20 21 21 23 24 23 23 25 26 25 25 24 24 25 26 26 25 25 24 24 24
7 5 3 7 10 10 8 8 12 13 10 7 6 7 6 3 1 0 2 2 2 4 4 4 6 7 7 8 11 14 15 14 12 10 8 7 5 5 5 5 4 4 4 4 4 5 5 7 7 7 10 12 14 18 19 18 18 19 18 19 20 21 22 21 19 18 19 19 20 20 21 21 20 22 22 23 23 23 24 25 26 25 24 24 24 24
6 5 5 6 8 8 7 9 12 13 13 11 9 9 9 7 4 3 5 5 3 4 5 5 6 8 7 6 8 9 8 8 8 8 7 6 5 5 5 6 6 5 5 4 5 5 5 5 6 9 13 14 15 18 19 19 19 19 18 18 18 19 20 19 17 17 17 17 18 19 20 19 19 20 21 22 23 24 25 25 26 26 25 24 25 26
4 5 7 7 7 7 5 5 3 5 11 12 9 9 9 7 6 7 6 5 5 5 5 4 6 10 8 7 9 9 7 8 7 6 6 6 7 8 7 7 6 5 4 3 4 5 4 4 8 12 13 13 14 16 17 18 19 20 20 18 18 19 20 19 18 17 17 17 18 20 20 20 21 22 22 23 24 26 28 27 27 26 26 25 25 26
2 6 8 7 6 4 3 4 4 5 3 9 9 9 11 10 10 8 3 1 3 6 6 5 7 10 8 6 10 11 9 9 7 5 6 8 9 9 8 6 5 4 4 3 3 4 3 6 11 11 8 10 13 15 17 20 21 21 21 20 21 22 23 22 20 18 17 17 19 20 20 21 23 23 23 25 25 26 27 27 25 25 25 25 25 26
4 8 9 8 8 5 2 3 1 1 3 6 8 12 14 15 14 10 3 1 2 6 8 7 8 9 6 3 7 10 7 7 7 6 8 8 9 9 7 5 5 5 5 5 4 4 5 8 9 7 7 9 12 17 20 23 23 22 22 23 23 24 25 24 22 21 19 19 18 19 20 21 22 22 24 25 25 26 26 25 24 24 25 24 25 26
6 7 8 9 10 9 8 7 6 7 7 7 9 14 17 19 18 10 4 4 5 7 8 7 6 9 11 10 12 12 9 11 12 9 8 8 8 9 7 5 5 4 5 6 6 6 7 8 6 6 9 11 16 21 21 22 23 23 24 25 25 25 25 25 23 22 21 21 20 20 21 21 21 22 23 23 24 24 24 24 25 25 25 25 25 26
4 6 8 10 9 8 8 6 6 7 8 8 12 15 16 18 18 11 5 5 6 7 8 8 7 10 17 19 19 17 13 13 15 13 10 9 9 8 6 5 4 4 4 5 6 8 9 8 7 8 10 14 22 25 22 21 23 23 24 27 28 26 25 25 23 21 22 22 23 23 22 21 21 21 21 22 23 23 23 24 24 25 25 25 26 27
3 6 10 11 11 10 8 4 8 9 10 11 13 15 15 15 16 13 8 6 6 6 7 8 9 12 19 22 22 20 15 13 15 15 13 12 12 11 9 9 9 9 9 8 9 10 11 10 9 9 11 18 23 24 21 22 23 23 24 25 27 26 25 24 22 21 21 22 24 26 25 23 21 20 20 21 21 22 23 23 24 25 25 25 27 29
4 7 10 11 11 12 10 4 8 6 8 8 9 12 14 14 15 13 12 11 10 8 7 7 9 13 19 23 21 20 17 15 16 17 15 14 14 13 14 14 15 14 13 12 13 12 11 10 10 11 14 18 21 22 22 23 23 23 24 24 24 25 25 23 22 20 20 21 24 27 26 24 22 22 22 21 22 22 23 24 25 25 25 26 28 29
3 6 9 10 10 12 13 10 6 5 6 8 10 10 10 11 13 13 13 14 15 15 13 14 16 17 18 22 23 21 18 16 16 17 17 16 14 13 15 16 15 15 14 13 13 12 11 12 12 13 14 16 19 21 22 22 22 23 25 24 23 24 23 21 21 20 19 20 23 25 25 24 24 24 24 25 26 26 25 25 25 25 26 27 28 29
3 6 7 8 9 10 11 13 12 11 10 10 11 11 9 10 11 11 12 13 14 16 18 19 19 17 15 18 23 23 18 14 16 20 20 16 12 12 15 15 14 14 14 14 13 12 12 12 12 13 13 14 17 21 24 25 24 23 23 22 23 22 22 21 21 20 20 21 22 23 24 24 25 25 26 28 29 28 27 25 25 26 28 29 29 30
4 4 3 4 7 8 8 10 12 11 11 12 11 11 11 11 11 12 13 14 14 14 15 16 15 14 13 15 19 22 20 18 19 21 19 16 14 13 15 17 15 12 11 12 12 12 12 12 13 13 12 13 18 23 25 24 23 23 22 22 23 23 22 22 21 21 21 22 22 22 23 24 24 25 27 29 29 28 27 26 26 28 30 31 32 31
7 6 4 5 6 7 8 9 8 7 8 10 10 12 15 16 17 17 15 15 16 14 12 12 12 12 12 12 14 19 24 23 19 17 15 15 16 16 16 18 15 10 9 10 11 11 12 12 12 12 14 19 23 23 19 17 19 23 25 25 24 24 23 22 21 21 21 22 22 22 22 22 23 25 27 28 27 27 26 26 28 29 30 31 31 31
8 7 5 6 5 7 5 4 5 8 9 7 8 14 18 18 18 18 16 17 18 16 13 13 13 13 13 13 15 19 24 24 21 19 17 15 14 15 18 19 16 13 11 11 10 11 11 11 11 14 19 23 21 17 14 16 19 22 24 24 23 22 21 20 20 20 20 21 22 21 21 20 22 24 26 25 24 24 26 27 29 31 31 31 30 30
7 7 5 5 5 5 3 5 5 8 7 7 9 11 14 16 17 19 19 21 21 19 18 18 17 17 17 17 19 21 24 26 25 23 20 17 15 16 18 18 17 16 16 13 12 12 11 9 10 13 16 16 15 14 15 17 18 19 20 19 19 20 19 19 19 19 19 21 22 22 21 21 22 23 23 23 22 23 25 27 29 31 31 30 31 32
7 7 5 5 6 5 5 7 7 4 2 6 11 10 11 13 15 16 18 19 19 18 17 18 18 20 21 21 21 21 23 24 22 19 19 20 17 16 17 18 18 18 16 14 12 10 9 9 10 11 11 12 14 15 16 17 16 17 18 17 17 19 19 18 18 19 19 20 21 22 23 24 23 22 22 21 21 23 26 27 29 31 29 28 29 30
5 7 6 5 6 6 7 8 6 4 6 9 12 12 13 13 12 11 11 12 14 16 17 18 20 22 23 23 21 20 19 17 15 16 17 15 10 8 12 16 15 11 9 9 10 10 10 11 12 13 14 15 15 15 15 16 17 18 18 18 17 17 17 18 19 20 20 20 21 22 24 24 24 23 23 21 21 24 26 27 29 29 27 27 28 29
3 6 6 6 6 6 6 8 7 6 8 11 11 10 10 11 11 10 8 8 11 16 18 19 21 22 21 20 20 17 14 12 13 14 10 7 9 7 6 7 7 8 8 9 11 12 12 12 12 14 15 15 15 15 16 18 20 19 19 18 16 16 16 17 19 20 21 22 23 23 24 24 23 24 24 23 24 25 26 27 27 27 26 26 28 30
2 4 5 6 7 8 8 8 7 7 10 12 7 4 6 9 10 8 6 8 13 18 19 18 18 19 18 17 16 13 10 10 12 10 4 8 7 6 7 8 8 9 9 9 9 10 12 13 13 15 15 14 14 17 20 21 22 19 18 18 17 16 16 17 18 19 20 22 23 24 25 24 23 24 25 25 26 27 27 27 27 25 25 25 26 28
2 5 7 8 10 11 10 9 7 6 11 13 5 6 6 7 7 6 7 9 11 10 9 11 13 15 15 15 14 12 10 9 8 5 5 7 6 6 6 6 6 7 9 9 10 11 12 12 13 14 14 14 15 19 21 22 21 19 19 20 19 17 16 17 19 19 20 22 23 23 24 23 23 25 26 26 27 28 27 27 26 24 24 24 25 26
4 7 8 9 11 11 11 10 7 5 12 15 5 7 8 6 5 8 10 7 5 3 3 2 6 7 8 9 8 7 5 3 3 4 5 6 6 6 6 6 6 6 7 9 11 12 11 10 12 12 13 15 16 18 20 21 20 19 20 20 19 19 20 21 21 21 22 22 22 22 23 23 23 25 26 27 27 27 27 26 25 24 24 23 23 24
6 7 8 9 10 9 10 9 6 8 13 11 5 11 11 7 5 8 6 2 5 5 5 3 2 2 3 3 3 2 4 5 5 5 6 6 6 7 7 7 7 8 9 10 11 12 11 12 14 15 17 19 19 18 18 19 19 19 20 20 21 23 24 25 25 24 23 23 22 23 24 25 24 24 25 26 26 27 28 26 24 24 23 22 22 23
7 7 9 10 8 7 9 8 7 8 6 7 12 11 9 7 4 2 1 4 5 5 5 5 5 5 5 4 4 4 5 6 6 6 7 6 6 7 7 7 7 8 10 12 13 14 14 14 15 16 19 22 22 20 18 19 19 19 18 21 24 26 27 28 28 27 26 26 26 26 26 26 25 24 24 24 25 25 26 25 23 22 22 21 21 22
8 8 8 8 7 7 8 9 10 9 3 8 8 5 6 7 1 4 2 1 4 5 3 4 5 5 4 3 4 4 4 5 6 6 7 7 6 6 7 7 6 6 9 12 15 15 15 14 16 19 21 23 24 23 20 18 19 20 21 24 26 28 29 31 31 31 31 31 29 29 28 27 26 23 22 22 22 23 24 24 22 22 21 20 20 21
11 10 5 5 8 8 7 8 9 8 4 0 1 1 3 3 2 4 3 1 3 3 2 2 4 5 4 3 4 4 3 5 6 6 7 8 7 7 6 7 8 9 11 15 17 16 15 14 15 18 21 24 26 25 22 19 18 19 23 27 28 28 29 31 33 34 34 33 32 31 30 29 28 25 22 20 19 20 22 21 20 21 20 19 20 20
9 10 3 2 6 8 8 11 10 8 6 3 1 2 5 4 2 2 3 2 3 3 2 1 1 3 3 3 4 4 5 6 6 6 7 8 9 8 7 7 11 13 14 16 18 20 20 19 18 18 20 23 26 26 24 22 20 19 23 28 30 30 30 30 32 33 33 33 33 33 31 30 30 27 23 21 18 19 20 19 19 19 19 18 19 20
6 9 5 3 6 7 7 8 9 10 9 6 3 2 5 5 3 2 2 2 4 3 2 2 2 2 2 2 3 4 6 7 6 6 6 7 8 10 9 9 12 15 17 17 19 22 22 20 18 18 20 23 25 26 26 25 24 24 25 28 30 31 31 30 28 29 30 31 32 32 30 28 28 27 24 22 20 19 19 19 19 19 18 17 17 18
6 8 7 8 10 9 5 1 0 3 4 3 2 1 4 5 4 4 4 4 4 2 0 1 1 1 2 2 3 4 5 6 7 7 7 7 7 8 9 10 12 15 18 20 21 22 20 17 17 18 19 22 26 27 27 28 28 28 28 28 28 28 29 28 26 25 27 28 28 28 27 26 26 26 24 23 21 21 20 19 19 20 20 20 19 19
6 7 7 8 9 9 9 5 2 1 2 2 2 2 4 4 5 5 4 3 3 1 1 1 1 2 2 4 4 4 5 6 7 7 8 8 8 9 9 11 14 16 19 21 22 21 19 19 20 20 20 23 25 27 26 26 27 28 27 27 26 25 24 25 24 23 24 25 24 24 24 24 24 24 23 23 23 24 24 23 21 22 23 23 22 22
6 7 7 7 7 8 10 8 6 5 5 2 5 6 5 5 5 4 3 3 2 1 2 3 3 4 4 4 5 5 6 7 8 8 8 8 9 10 11 13 15 16 18 20 22 22 21 21 22 23 24 25 25 24 24 25 26 26 26 25 24 22 22 22 22 21 21 21 20 20 21 22 22 22 22 22 23 24 26 27 26 25 24 23 23 23
7 8 8 8 8 7 5 4 5 5 3 3 7 7 5 4 4 3 3 4 3 2 2 3 5 6 5 5 5 6 7 8 9 9 9 9 10 13 15 15 15 16 18 19 20 20 21 22 22 23 24 25 24 23 23 25 26 27 27 26 23 22 21 20 19 19 19 18 18 19 20 21 21 22 22 21 21 22 23 25 26 26 25 24 23 22
Wind_Direction
177 183 192 205 198 198 199 205 219 223 227 239 221 204 219 226 229 231 215 152 190 224 225 230 243 245 252 259 258 260 257 252 254 255 255 254 254 254 255 256 255 255 256 257 254 252 252 245 228 222 227 224 223 225 220 216 215 215 216 214 213 216 213 206 205 204 203 204 210 218 222 224 225 225 227 228 226 224 224 226 226 224 222 222 224 225
195 197 203 212 211 203 198 207 220 229 238 246 227 213 223 225 233 237 205 139 166 242 242 240 250 250 253 261 262 261 259 257 256 257 255 255 258 258 258 258 257 259 259 258 255 251 247 235 223 223 229 226 223 223 220 215 215 215 214 214 213 213 211 207 206 205 204 204 205 210 216 221 223 224 223 222 223 225 226 225 224 222 219 217 219 223
260 230 224 230 228 214 207 211 215 223 228 235 236 227 227 226 232 234 169 142 171 237 257 258 262 259 256 260 263 259 256 255 252 254 254 255 261 261 259 260 260 264 262 258 257 252 248 240 227 221 225 229 227 226 224 219 216 215 214 214 213 212 212 210 209 208 207 206 205 205 209 214 218 223 224 223 224 225 226 225 222 220 216 213 215 219
247 258 235 335 283 225 215 215 213 216 218 225 231 223 227 228 231 233 181 177 202 230 261 275 276 266 262 263 263 258 253 252 249 249 251 251 257 259 259 261 262 264 263 261 258 255 254 251 239 224 221 227 228 227 226 222 218 217 215 214 214 214 214 210 212 214 211 208 208 205 205 208 214 222 227 228 228 227 225 224 221 219 214 213 215 214
215 272 98 48 352 244 217 210 208 213 212 218 226 226 235 232 234 246 216 185 221 237 246 268 280 265 251 251 256 255 245 241 239 241 244 246 249 252 255 258 257 257 259 259 259 258 258 255 249 238 228 223 223 224 226 224 221 219 219 217 217 218 215 212 214 216 212 209 206 202 201 206 216 224 224 224 225 225 223 222 220 218 214 212 214 213
209 178 98 105 30 348 226 204 199 205 212 218 225 231 244 249 242 234 221 224 253 252 221 218 267 269 243 243 250 252 245 239 234 231 236 244 249 249 252 254 251 249 248 246 249 254 256 255 252 249 241 230 225 226 229 229 226 225 224 222 220 219 217 214 213 212 210 207 203 200 199 201 209 216 217 218 219 219 218 219 218 217 216 213 213 214
189 163 142 139 91 30 269 227 205 205 225 229 229 229 235 250 256 237 228 230 254 270 215 177 257 281 265 252 254 260 259 252 236 224 230 239 245 245 248 253 254 252 246 240 240 242 246 248 249 251 249 244 239 236 234 231 230 229 227 224 220 220 219 216 211 208 207 207 206 205 204 203 205 210 214 216 217 218 218 218 216 215 216 215 213 214
151 160 165 159 147 137 239 246 222 212 222 228 0 318 237 238 247 240 237 237 247 271 250 189 237 277 274 258 257 262 264 261 243 227 230 233 240 248 251 256 259 258 255 249 240 231 233 238 245 255 260 256 252 247 237 232 233 231 229 226 221 221 221 216 211 207 204 207 209 209 210 211 210 212 214 213 215 218 218 216 214 213 214 214 214 214
152 170 175 166 160 168 191 202 197 214 219 226 13 352 298 256 252 242 238 245 249 261 256 225 218 258 269 259 249 247 248 253 248 239 242 241 243 252 254 256 259 261 263 262 249 232 233 239 245 258 264 259 254 247 237 238 242 238 231 229 225 223 221 215 215 212 208 209 211 212 215 217 217 217 216 213 213 214 213 213 213 212 213 213 214 214
149 176 172 168 168 181 185 162 132 147 160 55 28 5 355 333 284 253 236 240 247 247 247 236 221 246 270 262 235 232 233 245 249 244 245 239 238 248 252 256 262 267 271 267 250 240 241 242 247 258 263 258 252 246 240 241 244 240 234 231 227 225 222 216 215 213 211 211 212 214 217 219 219 217 215 213 213 212 209 211 212 211 212 213 214 215
100 141 155 171 182 181 172 143 134 137 137 118 72 37 354 347 332 299 248 225 236 241 239 233 223 236 265 264 229 235 233 239 246 233 220 221 232 246 255 260 263 270 279 268 237 244 241 238 245 252 259 260 257 249 244 244 244 240 235 232 229 227 224 220 214 212 213 212 212 215 217 218 219 217 214 213 214 213 209 209 210 209 210 212 212 214
128 144 156 160 135 142 136 121 103 105 134 143 95 82 349 330 320 334 231 209 220 234 236 230 222 229 249 253 224 246 236 223 232 227 237 245 242 251 260 263 268 275 283 273 250 257 247 245 250 250 256 262 260 249 241 246 252 249 240 234 233 232 226 222 217 214 214 213 215 218 218 218 219 217 215 216 216 214 210 209 208 207 208 209 210 212
151 170 171 143 130 150 143 137 143 146 170 177 151 156 171 261 241 216 201 207 223 242 255 214 210 220 247 254 250 251 245 237 241 244 260 267 263 266 266 266 275 280 281 278 274 281 271 261 259 255 261 268 264 252 240 243 251 251 244 235 234 235 230 224 221 218 216 215 218 220 219 220 222 220 219 220 221 218 216 214 210 207 207 207 209 210
159 187 178 159 156 170 161 158 178 194 194 193 188 185 183 204 241 234 216 214 227 245 265 220 203 210 251 263 251 241 239 242 245 248 259 266 264 265 267 273 281 279 278 279 278 280 274 269 263 257 265 271 269 266 256 246 244 244 242 236 235 238 235 226 223 222 220 220 221 221 222 223 223 223 222 222 222 222 221 219 216 212 209 210 212 213
173 192 178 176 172 173 183 190 188 173 186 197 198 194 198 204 224 244 229 234 261 255 237 214 201 193 214 254 279 236 235 237 242 247 250 254 256 259 266 272 273 274 275 272 270 272 273 276 274 263 265 271 271 276 274 261 247 242 241 238 239 242 240 232 227 226 224 225 225 224 225 225 225 226 226 226 227 226 223 222 221 218 216 216 217 219
187 195 171 179 176 172 187 198 177 133 169 187 164 192 224 218 199 297 331 151 330 319 245 209 209 210 232 268 347 111 131 208 232 237 236 241 246 251 258 259 260 270 273 268 265 272 278 281 279 264 265 278 278 278 278 273 261 252 248 246 245 246 245 239 233 230 228 228 228 226 226 226 228 230 228 228 230 229 226 225 224 223 223 222 221 225
188 183 166 172 178 178 185 188 179 175 179 163 163 193 214 125 123 199 269 136 123 274 260 235 239 245 267 278 260 238 225 211 219 231 240 246 242 243 253 254 257 264 265 260 259 273 283 286 286 264 262 287 288 284 282 281 275 264 258 254 251 250 246 240 236 233 231 230 229 227 226 225 227 228 227 228 228 227 228 229 228 228 229 228 226 229
182 162 158 170 179 181 182 181 185 197 149 160 185 173 106 56 74 154 246 221 200 247 263 251 250 247 250 269 264 235 228 225 227 236 247 254 242 233 239 241 248 253 255 260 262 270 279 285 293 278 268 290 293 291 292 293 292 282 272 263 255 252 249 243 237 233 232 231 231 230 227 226 227 227 227 229 228 228 228 227 228 228 228 229 231 233
183 140 156 182 184 170 169 177 188 201 99 104 183 152 132 149 176 161 204 230 225 244 260 230 239 245 239 248 274 257 235 235 237 237 242 247 234 222 230 241 248 252 261 274 276 281 285 296 313 316 301 302 303 304 302 301 301 295 290 282 270 265 263 255 245 237 233 231 232 233 230 229 230 230 229 230 230 229 228 227 227 227 227 228 231 231
187 176 168 192 183 158 161 184 195 194 176 129 180 169 176 258 180 173 191 197 217 235 256 247 236 234 235 246 256 259 261 261 257 250 244 245 242 243 259 264 264 272 287 297 301 309 312 313 322 324 307 304 312 316 311 305 304 301 298 293 284 280 275 266 254 244 239 235 234 234 232 231 231 231 230 230 230 229 229 230 230 229 229 229 230 229
182 203 183 176 170 158 168 194 196 193 185 181 189 187 192 198 148 211 201 175 205 222 229 252 253 244 237 247 254 254 257 260 260 260 252 251 266 280 280 281 291 300 301 309 318 324 322 317 318 318 312 311 318 324 321 314 311 308 303 298 294 290 283 272 260 249 244 242 239 237 235 233 232 232 232 232 232 232 231 232 233 233 232 231 232 233
179 198 173 155 168 179 191 198 202 203 194 191 198 194 193 188 172 204 212 192 198 217 212 229 258 258 243 248 267 263 261 266 268 264 259 266 287 293 289 285 288 299 312 325 328 324 317 313 313 312 314 317 320 325 327 325 321 317 313 310 306 299 291 283 270 254 245 242 240 239 238 236 234 232 232 230 231 233 234 233 232 233 234 233 234 235
178 189 175 161 178 187 167 157 188 225 209 209 215 208 204 197 188 207 214 190 187 211 225 244 266 268 253 246 264 269 272 281 281 272 271 285 296 294 291 288 290 310 332 341 326 313 303 300 304 305 308 314 316 320 326 329 326 321 320 323 320 312 305 296 282 267 252 242 240 241 239 239 239 236 233 231 231 233 235 234 234 235 235 236 236 236
159 188 184 168 167 158 96 98 51 15 243 221 222 218 214 205 202 214 226 152 196 204 211 223 244 263 262 238 253 263 268 275 282 283 280 287 293 289 286 286 295 316 333 337 310 297 301 303 301 301 302 305 311 319 325 327 326 322 321 325 325 321 317 309 296 282 264 248 243 244 242 241 243 242 238 236 235 236 237 237 237 237 236 236 237 236
186 187 185 176 175 174 163 186 182 40 232 224 216 216 218 213 211 218 225 301 241 207 208 219 231 254 263 227 244 257 261 271 278 276 270 273 279 278 272 270 288 310 318 316 303 292 304 301 297 302 294 291 308 320 322 321 321 319 318 319 320 319 318 315 305 292 277 261 253 251 248 246 246 245 242 241 240 241 240 239 238 237 237 237 237 237
200 191 186 190 194 194 198 206 204 198 202 214 218 218 219 218 216 216 214 221 226 207 207 221 237 264 279 281 270 265 267 279 283 278 265 259 261 267 269 271 281 294 298 302 304 304 303 294 288 290 283 295 318 320 315 314 314 314 315 316 317 315 315 315 309 299 286 274 264 259 255 251 248 246 245 245 245 245 243 241 239 238 237 236 235 235
191 197 199 209 214 212 211 202 183 186 190 194 210 217 220 222 219 219 222 220 227 228 226 232 245 272 282 281 277 275 276 283 287 287 281 278 276 272 268 270 273 280 288 289 291 295 295 288 280 276 286 314 322 314 308 309 309 308 311 314 315 315 314 313 310 302 293 283 272 266 261 255 252 250 249 248 248 248 247 244 241 240 238 237 237 235
157 199 205 213 225 230 231 177 147 181 206 199 203 211 216 220 218 219 227 228 239 246 241 237 238 259 271 271 274 280 285 288 288 288 289 292 294 292 286 289 293 296 299 295 289 288 286 282 278 281 302 316 311 303 304 307 306 306 307 309 313 314 313 311 307 304 300 291 280 272 266 261 257 255 254 252 251 250 248 246 244 242 240 238 238 238
174 206 203 205 223 234 237 193 133 165 218 214 212 217 218 220 219 221 229 232 237 242 247 252 246 250 262 266 271 279 287 291 289 289 290 287 289 291 288 287 289 290 289 285 284 283 279 276 279 290 304 305 297 296 302 303 304 307 307 308 311 311 309 307 303 302 303 297 290 284 276 270 265 261 258 255 253 251 249 248 248 246 243 240 239 240
202 205 205 209 223 233 238 233 196 193 223 226 231 232 228 231 232 234 237 235 235 238 242 247 247 246 256 268 276 279 282 287 289 287 283 279 280 282 278 278 279 280 280 278 276 275 274 277 283 291 295 292 291 299 304 303 304 306 307 309 310 309 309 306 300 299 301 299 299 295 286 280 275 269 265 261 258 256 254 251 248 245 243 241 240 240
231 202 194 206 228 238 241 244 241 236 237 239 242 242 245 251 250 248 247 240 237 240 241 243 249 252 254 264 273 276 277 281 282 282 282 285 288 283 280 281 276 270 271 273 274 276 278 281 284 286 284 285 295 304 306 306 307 308 309 310 310 311 311 306 300 298 297 298 300 298 291 286 282 276 272 268 265 262 259 256 250 246 245 245 244 243
208 199 148 172 228 239 229 233 240 241 244 246 247 244 243 244 242 238 236 235 237 244 247 245 248 253 251 255 267 277 281 275 270 274 282 289 290 285 286 287 281 273 270 268 270 275 278 280 282 283 285 292 299 300 301 305 310 311 311 309 309 311 309 304 299 295 294 295 297 295 292 289 285 280 276 273 268 264 262 261 259 255 251 250 250 249
183 190 165 167 214 240 229 225 228 227 238 242 233 230 230 231 234 236 236 238 240 244 247 244 242 247 254 261 269 277 280 278 275 275 279 286 289 291 290 287 290 300 291 274 271 274 275 276 278 281 288 292 293 294 299 309 312 309 307 307 307 307 305 302 297 293 292 293 293 292 292 290 286 282 279 276 272 267 263 261 262 260 257 255 254 253
179 192 198 180 209 243 223 190 210 223 233 237 219 218 224 228 235 240 242 242 240 238 241 248 254 259 265 270 269 270 273 276 278 276 275 280 287 288 287 288 297 306 297 286 283 277 271 271 274 279 285 289 293 298 306 309 304 301 302 305 307 307 305 301 296 292 291 292 292 291 290 289 286 283 282 280 276 270 265 263 262 261 258 256 253 251
174 188 202 194 214 238 173 138 209 229 226 235 239 234 233 237 239 242 244 243 242 244 248 253 260 264 264 263 261 262 265 268 271 274 277 280 280 282 287 292 296 293 289 288 287 283 281 283 285 289 293 299 308 310 305 302 298 295 298 303 308 308 305 301 295 291 289 288 289 288 286 285 284 283 283 281 278 274 270 268 267 264 260 255 251 249
176 185 198 202 209 226 213 200 221 255 281 254 253 244 234 233 233 236 243 245 244 248 252 253 255 255 254 253 252 253 258 266 273 278 279 279 277 275 278 280 280 280 284 290 295 303 317 320 317 318 320 321 320 312 305 304 304 302 302 306 309 307 305 302 296 289 285 283 285 287 286 284 282 282 282 280 277 275 273 272 271 269 266 260 255 253
186 184 189 207 207 215 231 227 233 290 296 263 247 231 222 219 217 224 241 249 245 244 245 245 245 245 247 249 250 254 261 270 279 279 279 290 304 290 270 271 278 292 310 324 332 344 352 345 339 339 337 332 325 317 313 314 317 315 311 311 313 310 307 301 294 291 291 288 288 291 291 288 285 284 283 279 274 273 275 275 273 271 268 263 259 257
213 195 189 205 206 206 233 243 240 246 251 245 236 220 208 204 206 216 234 252 250 243 238 238 240 243 246 250 254 260 264 269 272 273 289 347 14 6 332 323 344 7 13 2 352 350 352 349 342 338 337 333 328 326 325 326 327 323 315 313 314 311 305 297 295 298 299 298 297 297 297 295 289 284 283 279 275 274 276 276 274 271 268 263 260 258
245 218 206 211 216 216 224 235 233 235 248 248 230 141 147 183 195 206 230 251 250 244 239 237 242 246 250 254 259 260 260 259 260 269 342 33 25 11 9 11 13 9 1 1 359 348 342 340 338 338 339 335 329 332 335 334 332 326 317 314 313 308 302 301 304 308 306 304 304 303 301 299 293 286 283 280 278 278 278 277 275 272 267 263 260 259
225 214 210 214 224 225 225 235 240 241 252 253 223 123 148 174 169 188 230 246 248 249 245 240 245 250 253 255 256 253 254 260 265 293 17 31 23 23 19 6 0 353 349 354 356 348 341 338 337 337 335 330 328 333 337 337 333 327 321 318 314 309 307 310 312 312 310 308 307 305 302 300 297 291 285 281 281 281 280 279 277 274 268 264 260 259
200 207 206 213 224 225 225 236 246 248 256 259 232 137 148 145 153 208 231 250 280 351 41 227 245 260 264 264 263 260 274 318 343 353 9 17 16 14 6 353 345 337 337 342 345 346 344 337 334 331 326 327 330 332 337 339 334 326 323 321 317 314 319 321 318 315 312 310 307 304 302 300 298 294 289 285 283 282 280 278 275 272 269 265 261 258
191 196 207 217 223 224 225 232 247 264 264 256 169 135 144 155 204 226 230 329 359 21 53 74 54 6 356 3 7 351 358 10 5 352 355 4 5 357 348 345 342 335 337 339 342 349 348 336 333 333 331 333 335 335 338 339 333 326 324 321 316 319 324 325 322 319 316 311 307 303 301 298 297 295 291 288 284 280 278 276 273 270 267 264 261 258
178 180 205 214 211 215 221 216 226 255 253 144 135 147 167 185 220 273 10 24 36 43 38 46 46 24 22 42 38 14 2 352 344 345 344 340 347 345 333 330 331 328 330 331 332 339 343 338 334 333 330 331 333 335 338 339 333 328 323 317 318 323 324 323 323 321 317 312 308 304 303 301 299 296 292 288 284 280 277 274 271 267 264 260 258 257
178 184 204 207 193 195 208 204 214 241 230 121 137 177 193 195 218 30 18 339 67 65 27 30 45 20 8 15 1 355 350 334 333 341 334 326 334 335 320 317 320 314 316 321 324 330 336 336 331 328 326 327 331 332 335 337 334 327 321 320 323 325 324 323 324 322 318 315 312 309 307 306 302 297 292 288 284 278 274 272 269 265 260 255 252 252
190 191 194 196 191 193 212 220 224 246 268 146 133 88 122 139 64 62 85 105 89 88 41 27 23 1 355 349 336 335 327 326 332 334 325 318 318 316 307 307 312 310 310 314 319 326 332 330 325 323 322 324 329 331 334 338 335 325 320 322 325 325 323 323 324 321 319 318 316 314 312 310 305 299 291 286 279 272 269 268 266 262 257 250 246 245
200 193 180 187 200 211 243 251 246 253 268 275 262 97 95 90 80 102 115 107 110 128 141 113 0 323 329 343 339 325 319 326 327 318 314 312 309 309 306 303 311 315 315 316 321 327 330 328 326 324 321 321 326 330 332 335 333 325 320 323 325 324 322 322 322 320 319 318 317 316 315 312 308 303 295 286 274 265 263 261 258 257 254 250 245 241
207 197 199 207 202 209 239 250 248 251 256 261 244 160 109 91 91 87 59 80 113 133 159 157 184 264 290 313 307 299 310 322 320 309 305 303 304 309 311 311 316 316 313 314 317 321 323 324 324 323 318 317 321 325 328 330 331 328 324 323 323 322 321 321 321 319 318 318 317 316 316 313 309 305 299 289 276 263 258 253 249 248 246 243 243 242
181 179 196 214 215 220 234 226 162 252 251 250 250 174 109 101 100 81 54 53 76 79 328 166 170 256 286 299 289 293 308 314 308 303 300 296 299 304 306 308 310 309 308 309 311 314 316 315 313 312 309 309 313 318 323 326 328 328 325 321 320 319 318 318 319 317 316 317 316 314 314 312 309 305 300 292 282 270 260 251 243 241 241 240 239 241
140 160 190 207 214 229 241 227 176 277 260 204 143 82 81 100 105 94 80 72 71 44 341 10 339 283 293 297 294 295 293 285 284 287 289 291 293 295 299 303 304 303 304 305 307 309 310 307 304 301 298 299 303 309 313 317 321 323 320 317 317 316 315 315 316 315 314 315 315 313 313 312 310 306 301 295 289 282 274 265 255 246 245 246 244 243
146 178 190 192 205 228 240 230 210 234 256 199 106 89 84 96 100 96 92 89 87 41 6 354 312 285 277 270 269 275 276 278 284 286 284 285 289 292 296 300 300 299 300 302 305 305 302 298 296 294 293 294 296 300 304 308 313 316 317 316 316 314 313 314 315 314 313 313 312 312 313 313 311 307 303 298 293 289 286 281 273 262 254 250 248 247
196 211 204 208 225 236 243 230 211 226 241 99 97 100 100 95 97 107 98 75 62 41 356 319 293 290 290 278 272 274 275 279 287 289 285 285 286 288 291 293 294 297 300 301 301 299 295 292 289 286 286 289 292 296 301 306 311 315 317 317 317 314 311 311 311 309 310 310 308 307 309 309 307 306 304 300 295 292 291 290 287 278 267 258 252 250